User: anonymous   Login
Location: Bishop's University Astronomical Observatory
(45.3661°N, 71.8475°W)
Time: 03:03:20
(UTC-05:00)
Language:

Meteor 2-5 Rocket - Orbit

View from above orbital plane
View from above orbital plane
View from above satellite
View from above satellite

Ground track
Ground track

The orbit data is extracted from the following two-line orbital elements,

1 11608U 79095B   17017.88336010 -.00000009  00000-0 -12496-4 0  9998
2 11608  81.2141 356.8628 0053658 224.4068 135.2793 14.06108305908955
Epoch (UTC): 17 January 2017 21:12:02
Eccentricity: 0.0053658
inclination: 81.2141°
perigee height: 834 km
apogee height: 911 km
right ascension of ascending node: 356.8628°
argument of perigee: 224.4068°
revolutions per day: 14.06108305
mean anomaly at epoch: 135.2793°
orbit number at epoch: 90895

The dashed part of the orbit path shows where the satellite is in the earth's shadow,  

DLR